星链-35928(STARLINK-35928)

导读

STARLINK-35928是美国太空探索技术公司(SpaceX)星链互联网卫星星座的一员,星链旨在为全球提供高速低延迟宽带互联网服务。该卫星于2025年11月19日发射升空,承担着扩展星链星座全球网络覆盖、提升星座通信容量与服务能力的任务,进一步推动星链星座的部署进程。

基本信息
目录编号:
66528
目录名称:
STARLINK-35928
国际标识:
2025-265N
轨道中心:
EARTH
卫星名称:
星链-35928
卫星全名:
星链-35928(STARLINK-35928)
卫星状态:
在轨 (已飞行289 天)
发射日期:
2025-11-19 UTC
国别 :
美国 (US)
星等 :
--
轨道信息
数据来源 国际轨道数据
星历时间: 2026-09-03T23:51:19+0800
19小时前
查看轨道信息
半长轴: 6861.139km
偏心率: 0.0001971
轨道倾角: 43.004°
近地点辐角 269.627°
升交点赤经 352.687°
平近点角 90.436°
近地点: 481.649km
远地点: 484.355km
周期: 94.266分钟
每日圈数: 15.27596
详细信息
固有亮度:
5
最大亮度:
2.5
卫星平台:
Starlink V1.0
覆盖范围:
全球
运营商:
太空探索技术公司
运营商所在国:
美国
制造商(研发单位):
太空探索技术公司
制造商所在国:
美国
使用方式:
暂无
卫星简介
Starlink 计划是 SpaceX 推出的全球卫星互联网项目,通过发射低轨道卫星,为全球尤其是偏远地区提供高速、低延迟的互联网服务。自 2019 年起,Starlink 已部署数千颗卫星,旨在缩小全球数字鸿沟,推动互联网普及。该项目还为军事、航空等行业提供通信支持,带来广泛经济效益。
2D轨道图
3D轨道图
轨道高度分析图
轨道倾角分析图
轨道综合分析图
查看轨道综合分析图
交会数据列表
事件ID 空间交会对象 最接近时刻(TCA) 交会距离 交会风险概率(CRP) 交会风险指数(CRI) 操作
CDM_260905-175106-314806-652821
2026-09-05T
17:51:14+0000
0.372 km
远距离
2.670545E-4 高风险 0.84
CDM_260906-073705-642406-652821
2026-09-06T
07:37:34+0000
0.682 km
远距离
6.0421E-5 中风险 0.71
CDM_260906-091105-642406-652821
2026-09-06T
09:11:43+0000
0.882 km
远距离
2.657423E-5 中风险 0.63
CDM_260906-170705-873506-652821
2026-09-06T
17:07:10+0000
0.820 km
远距离
2.51177E-5 中风险 0.63
CDM_260906-153305-873506-652821
2026-09-06T
15:33:01+0000
0.848 km
远距离
2.239589E-5 中风险 0.62
CDM_260906-053706-314806-652821
2026-09-06T
05:37:22+0000
1.499 km
极远距离
4.387406E-6 低风险 0.48
CDM_260903-021505-322606-652821
2026-09-03T
02:15:45+0000
1.797 km
极远距离
2.78595E-6 低风险 0.44
CDM_260906-040306-314806-652821
2026-09-06T
04:03:13+0000
1.981 km
极远距离
1.975636E-6 低风险 0.41
CDM_260904-113906-074906-652821
OBJECT E (60749)
2026-09-04T
11:39:40+0000
2.175 km
极远距离
1.621742E-6 低风险 0.39
CDM_260906-060305-642406-652821
2026-09-06T
06:03:25+0000
2.195 km
极远距离
1.554285E-6 低风险 0.39